Location: ???
(35.5616°N, 139.7977°E)
Time: 19:22:51
(UTC+00:00)

Cosmos 2061 Rocket - Pass Details

Date: 17 November 2025
Orbit: 964 x 1013 km, 82.9° (Epoch: 08 December)

Event Time Altitude Azimuth Distance (km) Brightness Sun altitude
Rises 19:14:48 0° 351° (N) 3,657 6.9 -25.2°
Reaches altitude 10° 19:17:18 10° 351° (N) 2,707 6.2 -24.7°
Maximum altitude 19:23:29 78° 266° (W) 990 3.8 -23.4°
Drops below altitude 10° 19:29:40 10° 181° (S) 2,706 6.4 -22.2°
Sets 19:32:10 0° 180° (S) 3,655 7.1 -21.7°
